TimeMDT,TemperatureF,Dew PointF,Humidity,Sea Level PressureIn,VisibilityMPH,Wind Direction,Wind SpeedMPH,Gust SpeedMPH,PrecipitationIn,Events,Conditions,WindDirDegrees,DateUTC
12:53 AM,37.0,16.0,42,29.96,10.0,NNE,5.8,-,N/A,,Overcast,30,2013-03-27 06:53:00
1:53 AM,37.0,16.0,42,29.94,10.0,ESE,3.5,-,N/A,,Overcast,110,2013-03-27 07:53:00
2:53 AM,37.0,16.0,42,29.94,10.0,SE,3.5,-,N/A,,Mostly Cloudy,130,2013-03-27 08:53:00
3:53 AM,34.0,15.1,46,29.94,10.0,NE,8.1,-,N/A,,Scattered Clouds,40,2013-03-27 09:53:00
4:53 AM,32.0,16.0,52,29.98,10.0,East,6.9,-,N/A,,Clear,90,2013-03-27 10:53:00
5:53 AM,33.1,17.1,52,29.99,10.0,NNE,6.9,-,N/A,,Scattered Clouds,20,2013-03-27 11:53:00
6:53 AM,27.0,14.0,58,30.04,10.0,NNE,4.6,-,N/A,,Clear,30,2013-03-27 12:53:00
7:53 AM,33.1,18.0,54,30.05,10.0,ENE,6.9,-,N/A,,Clear,70,2013-03-27 13:53:00
8:53 AM,39.0,21.9,50,30.06,10.0,East,5.8,-,N/A,,Clear,80,2013-03-27 14:53:00
9:53 AM,46.0,19.9,35,30.06,10.0,East,5.8,-,N/A,,Clear,90,2013-03-27 15:53:00
10:53 AM,51.1,18.0,27,30.04,10.0,Calm,Calm,-,N/A,,Clear,0,2013-03-27 16:53:00
11:53 AM,55.0,16.0,22,30.01,10.0,Variable,5.8,-,N/A,,Clear,0,2013-03-27 17:53:00
12:53 PM,57.9,12.0,16,29.99,10.0,South,9.2,17.3,N/A,,Clear,190,2013-03-27 18:53:00
1:53 PM,60.1,12.0,15,29.96,10.0,SSW,8.1,28.8,N/A,,Clear,210,2013-03-27 19:53:00
2:53 PM,60.1,8.1,13,29.94,10.0,Variable,6.9,20.7,N/A,,Clear,0,2013-03-27 20:53:00
3:53 PM,62.1,8.1,12,29.94,10.0,WSW,16.1,21.9,N/A,,Clear,250,2013-03-27 21:53:00
4:53 PM,62.1,7.0,11,29.94,10.0,West,16.1,21.9,N/A,,Clear,260,2013-03-27 22:53:00
5:53 PM,59.0,8.1,13,29.96,10.0,SW,10.4,19.6,N/A,,Clear,230,2013-03-27 23:53:00
6:53 PM,57.0,9.0,15,30.01,10.0,WNW,8.1,-,N/A,,Clear,290,2013-03-28 00:53:00
7:53 PM,54.0,9.0,17,30.00,10.0,Calm,Calm,-,N/A,,Clear,0,2013-03-28 01:53:00
8:53 PM,51.1,10.0,19,30.01,10.0,Calm,Calm,-,N/A,,Clear,0,2013-03-28 02:53:00
9:53 PM,46.9,10.9,23,30.00,10.0,Calm,Calm,-,N/A,,Clear,0,2013-03-28 03:53:00
10:53 PM,43.0,12.0,28,30.01,10.0,Calm,Calm,-,N/A,,Clear,0,2013-03-28 04:53:00
11:53 PM,39.9,14.0,35,30.01,10.0,North,4.6,-,N/A,,Clear,350,2013-03-28 05:53:00